Regional Weather Roundup
Issued by NWS Boston, MA

Home | Current Version | Previous Version | Text Only | Print | Product List | Glossary On
Versions: 1 2 3 4 5 6 7 8 9 10 11 12 13 14 15 16 17 18 19 20 21 22 23 24 25 26 27
000
ASUS41 KBOX 250010
RWRBOX

REGIONAL WEATHER ROUNDUP
NATIONAL WEATHER SERVICE TAUNTON MA
800 PM EDT FRI OCT 24 2014

NOTE:  "FAIR" INDICATES FEW OR NO CLOUDS BELOW 12,000 FEET WITH NO
SIGNIFICANT WEATHER AND/OR OBSTRUCTIONS TO VISIBILITY.  THE FOLLOWING
OBSERVATION LOCATIONS DO NOT REPORT PRESENT WEATHER...PROVINCETOWN...
SMITHFIELD...BLOCK ISLAND...KEENE...AND OXFORD.

MAZALL-250100-
EASTERN MASSACHUSETTS

CITY           SKY/WX    TMP DP  RH WIND       PRES   REMARKS
BOSTON         CLOUDY    50  43  77 NW8       29.73R
6HR MIN TEMP:  50; 6HR MAX TEMP:  52;

BEVERLY        CLOUDY    50  42  74 NW7       29.72R
LAWRENCE       CLOUDY    49  42  77 NW8       29.74S
BEDFORD        CLOUDY    49  43  80 NW5       29.73R
BLUE HILL        N/A     48  43  82 NW12G18   29.72R
NORWOOD        CLOUDY    51  43  74 W7        29.73R
MARSHFIELD     NOT AVBL
PLYMOUTH       CLOUDY    50  45  83 W8        29.73R
TAUNTON        CLOUDY    52  44  74 W6        29.73S
NEW BEDFORD    CLOUDY    51  45  79 W5        29.72S
$$

MAZALL-250100-
CAPE COD AND THE ISLANDS

CITY           SKY/WX    TMP DP  RH WIND       PRES   REMARKS
FALMOUTH       CLOUDY    52  45  76 NW7       29.72S
HYANNIS        CLOUDY    52  48  86 W8        29.71R
CHATHAM        CLOUDY    50  49  96 W3        29.72S
PROVINCETOWN   CLOUDY    52   0  11 NW14G22   29.72R
NANTUCKET      CLOUDY    53  47  79 NW12      29.71S
MARTHAS VNYRD  CLOUDY    52  44  74 NW9       29.73R
$$

MAZALL-250100-
CENTRAL AND WESTERN MASSACHUSETTS

CITY           SKY/WX    TMP DP  RH WIND       PRES   REMARKS
WORCESTER      CLOUDY    46  40  79 NW10      29.74S
6HR MIN TEMP:  46; 6HR MAX TEMP:  50;

FITCHBURG      CLOUDY    50  41  71 NW7       29.75S
ORANGE         CLOUDY    48  41  76 NW10      29.76R
SPRINGFIELD    CLOUDY    50  42  73 N13       29.77R
WESTFIELD      MOCLDY    51  42  71 CALM      29.78R
NORTH ADAMS    CLOUDY    46  42  86 W9        29.83R
PITTSFIELD     CLOUDY    46  42  86 N9        29.80R
$$

RIZALL-250100-
RHODE ISLAND

CITY           SKY/WX    TMP DP  RH WIND       PRES   REMARKS
PROVIDENCE     CLOUDY    52  42  69 NW9       29.75R
6HR MIN TEMP:  52; 6HR MAX TEMP:  55;

NEWPORT        CLOUDY    53  42  66 NW10      29.74S
BLOCK ISLAND   CLOUDY    54  41  62 N13G18    29.75R
SMITHFIELD     CLOUDY    48  36  61 NW9G16    29.74S
WESTERLY       CLOUDY    53  42  66 VRB6      29.76S
$$

CTZALL-250100-
CONNECTICUT

CITY           SKY/WX    TMP DP  RH WIND       PRES   REMARKS
BRADLEY INTL   MOCLDY    52  42  69 NW8       29.77S
6HR MIN TEMP:  52; 6HR MAX TEMP:  57;

HARTFORD       CLOUDY    53  42  66 VRB7      29.78S
BRIDGEPORT     PTCLDY    54  45  71 NW3       29.79S
DANBURY        PTCLDY    49  42  77 W3        29.80S
GROTON         MOCLDY    51  42  71 NW10      29.76R
NEW HAVEN      PTCLDY    55  44  66 NW5       29.78S
CHESTER        NOT AVBL
MERIDEN        CLEAR     48  43  82 CALM      29.78S
WILLIMANTIC    CLOUDY    52  41  66 NW6       29.77R
OXFORD         PTCLDY    48  39  71 N5        29.79S
$$

MEZ002-015-021-024-NHZ003-005-008-011-012-014-VTZ005-008-250100-
NORTHERN NEW ENGLAND

CITY           SKY/WX    TMP DP  RH WIND       PRES   REMARKS
PORTLAND ME    CLOUDY    51  43  74 N8        29.70S
6HR MIN TEMP:  51; 6HR MAX TEMP:  54;

BANGOR ME      LGT RAIN  44  42  93 N14       29.67R FOG
CONCORD NH     MOCLDY    46  40  79 NW8       29.74R
MANCHESTER NH  MOCLDY    48  39  71 NW12      29.72S
NASHUA NH      CLOUDY    49  41  74 N14G20    29.75R
PORTSMOUTH NH  CLOUDY    49  43  79 NW6       29.70S
JAFFREY NH     CLOUDY    46  40  79 VRB5G20   29.75S
KEENE NH       CLOUDY    48  36  61 N8        29.77S
BURLINGTON VT  CLOUDY    47  41  80 E3        29.84F
MT. WASHINGTON FOG       36  36 100 N37G46      N/A  VSB 1/16WCI  21
$$

NYZ052-076-250100-
EASTERN NEW YORK

CITY           SKY/WX    TMP DP  RH WIND       PRES   REMARKS
ALBANY         CLOUDY    47  44  90 N6        29.86R
6HR MIN TEMP:  47; 6HR MAX TEMP:  49; 6HR PCP: TRACE;

NEW YORK CITY  PTCLDY    57  47  69 E3        29.80R
6HR MIN TEMP:  57; 6HR MAX TEMP:  62;

$$

ANZALL-250100-
MARINE OBSERVATIONS

STATION/POSITION TIME  TEMP    WIND        PRES    VSBY  WAVE
                       AIR SEA DIR/SP/G                  HT/PER
                 (UTC) (F)     (DEG/KT/KT) (MB)    (MI)  (FT/S)
BOSTON BUOY      NOT AVBL
BUZZARDS BAY     NOT AVBL
NANTUCKET SOUND  NOT AVBL
MASS BAY-STELLWA NOT AVBL
ISLE OF SHOALS   NOT AVBL
S OF BLOCK IS    NOT AVBL
$$

......................KEY.........................
  SKY/WX - SKY CONDITION/PRESENT WEATHER
  TMP    - TEMPERATURE IN FAHRENHEIT
  DWPT   - DEWPOINT IN FAHRENHEIT
  RH     - RELATIVE HUMIDITY IN PERCENT
  WIND   - DIRECTION AND SPEED IN MPH
  PRES   - MEAN SEA LEVEL PRESSURE IN INCHES OF HG
  WCI    - WIND CHILL INDEX
  VSB    - VISIBILITY IN MILES
  HX     - HEAT INDEX
  TC     - TEMPERATURE IN CELSIUS
  VRB    - VARIABLE WIND DIRECTION
  N/A    - NOT AVAILABLE



USA.gov is the U.S. government's official web portal to all federal, state and local government web resources and services.